{"data":{"norad_id":68627,"epoch":"2026-09-19T05:18:35.377920Z","epoch_age_seconds":173733,"freshness":"STALE","line1":"1 68627U 26074A   26262.22124280  .00006311  00000+0  25334-3 0  9997","line2":"2 68627  60.0169 177.2905 0037144  83.8382 276.6929 15.25548982 25125","mean_motion":15.25548982,"eccentricity":0.0037144,"inclination_deg":60.0169,"raan_deg":177.2905,"arg_perigee_deg":83.8382,"mean_anomaly_deg":276.6929,"bstar":0.00025334,"rev_number":2512,"period_min":94.392249412546,"perigee_km":463.62963661431,"apogee_km":514.64524498011,"semimajor_km":6867.2744407972,"source":"CELESTRAK","updated_at":"2026-09-20T09:00:24.364182Z"}}